Location: ??????
(38.5153°N, 23.0340°E)
Time: 22:43:48
(UTC+00:00)

SJ-7 - Pass Details

Date: 13 December 2025
Orbit: 498 x 520 km, 97.7° (Epoch: 14 January)

Event Time Altitude Azimuth Distance (km) Brightness Sun altitude
Rises 17:09:49 0° 173° (S) 2,591 7.8 -23.2°
Reaches altitude 10° 17:11:54 10° 177° (S) 1,715 6.9 -23.6°
Enters shadow 17:15:27 63° 247° (WSW) 571 4.5 -24.2°
Exits shadow 17:19:26 - 342° (NNW) 1,799 7.0 -25.0°
Sets 17:21:25 0° 345° (NNW) 2,638 7.9 -25.4°
